sat.trackr.live / text

‹ back to catalog

STARLINK-33690

NORAD 63406 · 2025-065H

PAYLOAD ACTIVE UNKNOWN

§ Identity

Operator
Country
US
Launch date
2025-03-31
Launch site
AFETR
Launch vehicle
Mass (kg)
RCS (m²)

Purposes: comms

External: N2YO · Heavens-Above · Gunter

§ Orbital elements

Epoch: 2026-05-25T01:08:23.593056Z

Period
94.27 min
Inclination
43.0008°
Eccentricity
0.0001154
Mean motion
15.27587812 rev/d
Perigee alt
482.2 km
Apogee alt
483.8 km
Semi-major
6,861.2 km
B*
8.5954e-4
RAAN
31.8976°
Arg perigee
275.2634°
Mean anomaly
84.8086°
Rev number
6,456

§ Raw data

STARLINK-336901 63406U 25065H   26145.04749529  .00023472  00000+0  85954-3 0  99962 63406  43.0008  31.8976 0001154 275.2634  84.8086 15.27587812 64561

JSON: /api/v1/satellites/63406 · /tle

For live sub-satellite position, see the globe view (requires WebGL).

§ Visibility from observer

Set your observer location to see the next 7 days of passes ≥ 10°. The values pass through the URL so the page stays shareable.

No JS? Fill the form by hand. The geolocation button needs JavaScript.